[[{"header":{"parameterUnit":"m.s-1","parameterCategory":1,"la1":30.2991,"la2":30.254,"lo1":-89.0895,"lo2":-89.0444,"dy":0.0017,"dx":0.0017,"nx":28,"ny":28,"refTime":"2023-08-23T09:00:00:Z","depth":0,"parameterNumber":2,"parameterNumberName":"U-component_of_WINDS"},"data":[0,0,0,0,0,0,0,0,0,0,0,0,0,0,0,0,0,0,0,0,0,0,0,0,0,0,0,0,0,0,0,0,0,0,0,0,0,0,0,0,0,0,0,0,0,0,0,0,0,0,0,0,0,0,0,0,0,0,-1.5295,-1.5296,0,-1.5316,-1.5316,-1.5316,-1.5344,-1.5345,-1.5345,-1.5346,-1.5366,-1.5366,-1.5367,0,0,0,0,0,0,0,0,0,0,0,0,0,-1.5279,-1.528,-1.5295,-1.5296,-1.5296,-1.5316,-1.5316,-1.5317,-1.5344,-1.5345,-1.5345,-1.5346,-1.5366,-1.5366,-1.5367,0,0,0,0,0,0,0,0,0,0,0,0,0,-1.5292,-1.528,-1.5295,-1.5312,-1.5314,-1.5316,-1.5316,-1.5317,-1.5344,-1.5345,-1.5346,-1.5346,-1.5366,-1.5366,-1.5367,-1.5354,0,0,-1.5367,-1.5367,0,0,0,0,0,0,0,0,-1.5291,-1.5292,-1.5309,-1.5311,-1.5313,-1.5328,-1.5318,-1.5329,-1.5344,-1.5333,-1.5346,-1.5347,-1.5353,-1.5354,-1.5357,-1.5354,-1.5355,-1.5367,-1.5367,-1.5367,-1.5367,0,0,0,0,0,0,0,-1.529,-1.5292,-1.5304,-1.531,-1.5312,-1.5319,-1.5321,-1.532,-1.5339,-1.5334,-1.5336,-1.5338,-1.5354,-1.5356,-1.5357,-1.5356,-1.5367,-1.5367,-1.5367,-1.5367,-1.5344,-1.5344,0,0,0,0,0,0,-1.5287,-1.5291,-1.5303,-1.5304,-1.5304,-1.5318,-1.5321,-1.5323,-1.5339,-1.5342,-1.5337,-1.5339,-1.5356,-1.5357,-1.5358,-1.5344,-1.5367,-1.5367,-1.5367,-1.5345,-1.5344,-1.5344,0,0,0,0,0,0,-1.5286,-1.5288,-1.5302,-1.5298,-1.53,-1.5318,-1.5319,-1.5323,-1.5325,-1.5341,-1.5345,-1.5336,-1.5356,-1.5358,-1.5355,-1.5345,-1.5367,-1.5368,-1.5346,-1.5345,-1.5344,-1.5316,0,0,0,0,0,0,-1.5286,-1.5287,-1.5283,-1.5298,-1.53,-1.5298,-1.5319,-1.5323,-1.5325,-1.5328,-1.5341,-1.5344,-1.5357,-1.5354,-1.5355,-1.5346,-1.5368,-1.5347,-1.5345,-1.5344,-1.5318,-1.5315,-1.5311,0,0,0,0,0,-1.5285,-1.5274,-1.5282,-1.5284,-1.5295,-1.5297,-1.5299,-1.5314,-1.5324,-1.532,-1.5331,-1.5344,-1.5346,-1.5354,-1.5355,-1.5346,-1.5348,-1.5346,-1.5344,-1.532,-1.5315,-1.5311,0,0,0,0,0,0,-1.5257,-1.5276,-1.5286,-1.5279,-1.5286,-1.5302,-1.5297,-1.5309,-1.5313,-1.5316,-1.5334,-1.5337,-1.5331,-1.5338,-1.5346,-1.5334,-1.5349,-1.5347,-1.533,-1.5326,-1.5323,-1.5321,-1.5368,0,0,0,0,0,-1.525,-1.525,-1.5267,-1.5259,-1.5263,-1.5279,-1.5281,-1.5292,-1.53,-1.5304,-1.5314,-1.5321,-1.5324,-1.5325,-1.5329,-1.5319,-1.5323,-1.5314,-1.531,-1.5307,-1.5306,-1.5302,-1.5298,-1.5338,-1.5338,-1.5338,0,0,-1.5235,-1.5246,-1.5245,-1.5254,-1.5261,-1.5261,-1.5282,-1.5281,-1.5281,-1.5303,-1.5301,-1.5309,-1.5319,-1.5312,-1.531,-1.5318,-1.5296,-1.5305,-1.5303,-1.5303,-1.53,-1.5296,-1.5293,-1.5337,-1.5337,-1.5338,0,0,-1.5209,-1.5217,-1.5211,-1.5218,-1.5229,-1.524,-1.5239,-1.5253,-1.5259,-1.5257,-1.5274,-1.5275,-1.5279,-1.5285,-1.5289,-1.5265,-1.5278,-1.5266,-1.5248,-1.5244,-1.5241,-1.5238,-1.523,-1.5227,-1.5264,-1.5264,-1.5264,0,-1.5189,-1.519,-1.5207,-1.5205,-1.5209,-1.523,-1.5225,-1.523,-1.5241,-1.5243,-1.5252,-1.5258,-1.5266,-1.5262,-1.5256,-1.5258,-1.5257,-1.5264,-1.524,-1.5238,-1.5235,-1.5228,-1.5225,-1.5263,-1.5263,-1.5263,-1.5263,0,-1.5166,-1.5166,-1.5161,-1.5171,-1.5174,-1.5171,-1.5187,-1.5188,-1.5199,-1.5209,-1.5207,-1.5218,-1.5224,-1.5223,-1.5234,-1.5221,-1.5225,-1.5237,-1.5252,-1.523,-1.5223,-1.522,-1.5261,-1.5261,-1.5262,-1.5262,0,0,-1.5121,-1.5142,-1.514,-1.5145,-1.5159,-1.5159,-1.5157,-1.5163,-1.5164,-1.5171,-1.517,-1.5173,-1.5184,-1.5188,-1.5199,-1.5196,-1.5177,-1.5208,-1.5208,-1.5202,-1.5164,-1.5155,-1.5152,-1.5185,-1.5185,-1.5185,-1.5163,0,-1.5098,-1.5095,-1.511,-1.5104,-1.5105,-1.5124,-1.5122,-1.5131,-1.514,-1.5142,-1.5153,-1.5155,-1.5169,-1.5171,-1.5169,-1.518,-1.517,-1.5181,-1.5184,-1.5184,-1.5182,-1.5148,-1.5139,-1.5118,-1.5161,-1.516,-1.516,0,-1.5069,-1.5076,-1.5069,-1.5084,-1.5085,-1.5083,-1.509,-1.5092,-1.5101,-1.5109,-1.5113,-1.5127,-1.5126,-1.514,-1.5139,-1.5147,-1.5149,-1.5154,-1.5154,-1.5155,-1.5171,-1.5148,-1.5112,-1.5109,-1.5156,-1.5156,-1.5156,0,-1.5038,-1.5045,-1.5042,-1.5046,-1.5063,-1.5061,-1.5068,-1.5078,-1.5081,-1.5087,-1.509,-1.5095,-1.5099,-1.5103,-1.5118,-1.5127,-1.5115,-1.513,-1.5121,-1.5121,-1.5118,-1.5118,-1.5081,-1.5118,-1.5118,-1.5119,-1.5119,0,-1.501,-1.5005,-1.5028,-1.5026,-1.5022,-1.5039,-1.5034,-1.5043,-1.5053,-1.5053,-1.507,-1.507,-1.509,-1.5092,-1.5103,-1.5101,-1.5102,-1.5108,-1.5111,-1.5106,-1.5106,-1.5108,-1.511,-1.5118,-1.5118,-1.5118,-1.5118,0,-1.4974,-1.4989,-1.4988,-1.5004,-1.5008,-1.5004,-1.5018,-1.5017,-1.5028,-1.5028,-1.5029,-1.5046,-1.5049,-1.5065,-1.5071,-1.5079,-1.5073,-1.5079,-1.507,-1.5072,-1.5062,-1.5063,-1.5026,-1.5022,-1.5061,-1.5061,-1.5061,0,-1.4955,-1.4952,-1.4969,-1.497,-1.4977,-1.4979,-1.4982,-1.5,-1.5002,-1.5014,-1.5011,-1.5016,-1.5021,-1.5026,-1.5039,-1.5044,-1.5051,-1.5038,-1.5052,-1.5047,-1.5051,-1.5051,-1.5051,-1.5034,-1.5034,-1.5034,-1.5033,0,-1.492,-1.4928,-1.4932,-1.4939,-1.4943,-1.4949,-1.4956,-1.4957,-1.4976,-1.4978,-1.4982,-1.4986,-1.4993,-1.4998,-1.5006,-1.5013,-1.5027,-1.5029,-1.5027,-1.5022,-1.5017,-1.502,-1.5062,-1.5029,-1.503,-1.503,-1.503,-1.503,-1.4893,-1.4891,-1.4903,-1.4907,-1.4914,-1.4921,-1.4921,-1.4932,-1.4936,-1.4943,-1.4953,-1.4956,-1.4967,-1.4979,-1.4985,-1.4988,-1.4995,-1.4992,-1.4991,-1.4991,-1.4988,-1.5017,-1.4989,-1.4989,-1.4989,-1.4989,-1.4989,0,-1.4859,-1.4867,-1.4871,-1.4881,-1.4884,-1.4897,-1.4906,-1.4908,-1.491,-1.4919,-1.4924,-1.4928,-1.4933,-1.4947,-1.4953,-1.4953,-1.4959,-1.4954,-1.4954,-1.4956,-1.4981,-1.4982,-1.4949,-1.4949,-1.4949,-1.4949,-1.4949,-1.4949,-1.4842,-1.484,-1.4849,-1.4851,-1.486,-1.4863,-1.4867,-1.4873,-1.4881,-1.4885,-1.489,-1.4899,-1.4909,-1.4917,-1.4922,-1.4926,-1.4928,-1.4921,-1.4926,-1.495,-1.4954,-1.4958,-1.4959,-1.4921,-1.4921,-1.4901,-1.4901,-1.49]},{"header":{"parameterUnit":"m.s-1","parameterCategory":1,"la1":30.2991,"la2":30.254,"lo1":-89.0895,"lo2":-89.0444,"dy":0.0017,"dx":0.0017,"nx":28,"ny":28,"refTime":"2023-08-23T09:00:00:Z","depth":0,"parameterNumber":3,"parameterNumberName":"V-component_of_WINDS"},"data":[0,0,0,0,0,0,0,0,0,0,0,0,0,0,0,0,0,0,0,0,0,0,0,0,0,0,0,0,0,0,0,0,0,0,0,0,0,0,0,0,0,0,0,0,0,0,0,0,0,0,0,0,0,0,0,0,0,0,-2.6745,-2.6745,0,-2.6727,-2.6727,-2.6726,-2.6668,-2.6666,-2.6665,-2.6664,-2.6645,-2.6646,-2.6647,0,0,0,0,0,0,0,0,0,0,0,0,0,-2.673,-2.673,-2.6745,-2.6745,-2.6744,-2.6727,-2.6727,-2.6726,-2.6668,-2.6666,-2.6665,-2.6663,-2.6645,-2.6646,-2.6647,0,0,0,0,0,0,0,0,0,0,0,0,0,-2.6726,-2.673,-2.6745,-2.6713,-2.671,-2.6727,-2.6727,-2.6726,-2.6668,-2.6666,-2.6664,-2.6663,-2.6645,-2.6646,-2.6647,-2.6693,0,0,-2.665,-2.6651,0,0,0,0,0,0,0,0,-2.6727,-2.6727,-2.6718,-2.6715,-2.6712,-2.6698,-2.6714,-2.6715,-2.6669,-2.6684,-2.6664,-2.6662,-2.6664,-2.6664,-2.6664,-2.6692,-2.6691,-2.665,-2.6651,-2.6651,-2.6652,0,0,0,0,0,0,0,-2.6727,-2.6727,-2.6738,-2.6718,-2.6714,-2.67,-2.6698,-2.6714,-2.6685,-2.6683,-2.6678,-2.6677,-2.6662,-2.6664,-2.6664,-2.6691,-2.665,-2.6651,-2.6652,-2.6652,-2.6756,-2.6758,0,0,0,0,0,0,-2.6732,-2.6728,-2.6738,-2.6737,-2.6715,-2.6702,-2.6699,-2.6704,-2.6685,-2.668,-2.6679,-2.6674,-2.6663,-2.6662,-2.6663,-2.6717,-2.6651,-2.6652,-2.6653,-2.6754,-2.6757,-2.6759,0,0,0,0,0,0,-2.6732,-2.6733,-2.6739,-2.6731,-2.6731,-2.6704,-2.6711,-2.6705,-2.6706,-2.6682,-2.6677,-2.6686,-2.6661,-2.6661,-2.6686,-2.6715,-2.6653,-2.6654,-2.6752,-2.6755,-2.6758,-2.6824,0,0,0,0,0,0,-2.6731,-2.6733,-2.675,-2.6732,-2.6732,-2.6763,-2.6712,-2.6706,-2.6708,-2.6702,-2.6687,-2.6683,-2.666,-2.6685,-2.6687,-2.6715,-2.6655,-2.6749,-2.6753,-2.6757,-2.6819,-2.6829,-2.6838,0,0,0,0,0,-2.6731,-2.6769,-2.6752,-2.6753,-2.6752,-2.6764,-2.6764,-2.6737,-2.6711,-2.6728,-2.6713,-2.6683,-2.6711,-2.6688,-2.669,-2.6719,-2.6747,-2.6752,-2.6757,-2.6815,-2.6827,-2.6837,0,0,0,0,0,0,-2.6791,-2.6766,-2.6746,-2.678,-2.6775,-2.6755,-2.6775,-2.675,-2.6753,-2.6747,-2.6713,-2.671,-2.6741,-2.6732,-2.6706,-2.6763,-2.6724,-2.673,-2.6768,-2.6779,-2.6788,-2.6791,-2.6656,0,0,0,0,0,-2.6808,-2.682,-2.6797,-2.6829,-2.6828,-2.6802,-2.6806,-2.6786,-2.6779,-2.6777,-2.6763,-2.6758,-2.6766,-2.6772,-2.6777,-2.6817,-2.6814,-2.6838,-2.6848,-2.6855,-2.6861,-2.6883,-2.6894,-2.6775,-2.6775,-2.6775,0,0,-2.6843,-2.6831,-2.6841,-2.6841,-2.6835,-2.6848,-2.6801,-2.6817,-2.6827,-2.6779,-2.6803,-2.6793,-2.6784,-2.6818,-2.6831,-2.6811,-2.6893,-2.6861,-2.6868,-2.6869,-2.6889,-2.6901,-2.6911,-2.6778,-2.6778,-2.6777,0,0,-2.6915,-2.6907,-2.6933,-2.6928,-2.692,-2.6903,-2.6909,-2.6893,-2.6885,-2.6907,-2.6873,-2.6884,-2.6898,-2.6894,-2.6894,-2.6966,-2.694,-2.6969,-2.7017,-2.704,-2.7049,-2.7057,-2.7085,-2.7095,-2.6974,-2.6974,-2.6974,0,-2.6961,-2.698,-2.695,-2.6969,-2.6971,-2.6929,-2.6956,-2.6952,-2.6946,-2.6948,-2.6926,-2.6943,-2.6935,-2.6967,-2.6985,-2.6986,-2.6993,-2.6971,-2.705,-2.7058,-2.7065,-2.7091,-2.7101,-2.6978,-2.6978,-2.6977,-2.6977,0,-2.7037,-2.7051,-2.7073,-2.7069,-2.7073,-2.7096,-2.707,-2.7078,-2.7057,-2.7043,-2.7067,-2.7056,-2.7059,-2.7065,-2.7045,-2.7095,-2.7083,-2.7056,-2.7017,-2.7081,-2.7105,-2.7114,-2.6983,-2.6982,-2.6981,-2.698,0,0,-2.7146,-2.7126,-2.7135,-2.7134,-2.7122,-2.7132,-2.7153,-2.7157,-2.7165,-2.7162,-2.718,-2.7193,-2.7168,-2.7168,-2.7147,-2.7167,-2.7227,-2.7137,-2.7136,-2.7156,-2.7284,-2.7307,-2.7318,-2.7209,-2.721,-2.7212,-2.7286,0,-2.7216,-2.7252,-2.7226,-2.7267,-2.728,-2.7241,-2.726,-2.7255,-2.7242,-2.7252,-2.7237,-2.7248,-2.7213,-2.7213,-2.723,-2.7216,-2.7253,-2.721,-2.7226,-2.7227,-2.7232,-2.7331,-2.7354,-2.7424,-2.7295,-2.7296,-2.7297,0,-2.7303,-2.7305,-2.7347,-2.7334,-2.7339,-2.7356,-2.7359,-2.7368,-2.7362,-2.7351,-2.7352,-2.7326,-2.7347,-2.7307,-2.7336,-2.7308,-2.7313,-2.7307,-2.7309,-2.7311,-2.7268,-2.7337,-2.7445,-2.7457,-2.7311,-2.731,-2.7309,0,-2.7381,-2.7394,-2.7422,-2.7421,-2.7406,-2.742,-2.7414,-2.7406,-2.741,-2.7412,-2.7415,-2.7419,-2.7422,-2.7426,-2.7402,-2.7375,-2.7435,-2.7393,-2.7428,-2.7429,-2.7443,-2.7443,-2.7556,-2.7444,-2.7444,-2.7443,-2.7443,0,-2.7463,-2.7491,-2.7457,-2.7474,-2.7505,-2.7475,-2.7506,-2.7496,-2.7489,-2.7504,-2.7469,-2.7484,-2.7451,-2.7463,-2.7444,-2.7472,-2.7473,-2.7466,-2.7461,-2.747,-2.7472,-2.7474,-2.747,-2.7446,-2.7446,-2.7445,-2.7444,0,-2.7556,-2.7534,-2.7562,-2.7546,-2.7542,-2.7566,-2.7552,-2.7567,-2.7552,-2.7572,-2.7575,-2.7551,-2.7563,-2.754,-2.7548,-2.7536,-2.7576,-2.7562,-2.7578,-2.7575,-2.7612,-2.761,-2.7733,-2.7748,-2.7624,-2.7625,-2.7626,0,-2.7611,-2.7631,-2.7618,-2.7626,-2.7622,-2.7635,-2.764,-2.7611,-2.7618,-2.7613,-2.763,-2.7639,-2.7645,-2.7666,-2.765,-2.7657,-2.7644,-2.7687,-2.7645,-2.7654,-2.7647,-2.7647,-2.765,-2.7696,-2.7697,-2.7699,-2.77,0,-2.7711,-2.7699,-2.7708,-2.7713,-2.772,-2.7723,-2.7723,-2.7731,-2.7701,-2.771,-2.7722,-2.7727,-2.7737,-2.7747,-2.775,-2.7744,-2.7718,-2.7713,-2.7722,-2.7732,-2.7742,-2.7739,-2.7604,-2.771,-2.7709,-2.7708,-2.7708,-2.7707,-2.7787,-2.7805,-2.7799,-2.781,-2.7807,-2.7808,-2.7823,-2.781,-2.782,-2.7826,-2.7808,-2.7825,-2.7819,-2.7821,-2.7818,-2.7831,-2.7812,-2.7825,-2.7828,-2.7832,-2.7839,-2.7738,-2.7831,-2.7831,-2.7831,-2.783,-2.783,0,-2.7887,-2.7882,-2.7892,-2.7894,-2.7904,-2.7877,-2.7876,-2.7886,-2.7902,-2.7898,-2.7906,-2.7921,-2.7931,-2.7916,-2.7923,-2.7937,-2.7925,-2.794,-2.794,-2.7939,-2.7855,-2.7847,-2.7949,-2.7949,-2.7949,-2.7949,-2.7949,-2.7949,-2.7941,-2.797,-2.7958,-2.7986,-2.7979,-2.7996,-2.7998,-2.8,-2.7997,-2.8016,-2.8024,-2.8015,-2.8007,-2.8014,-2.8023,-2.8018,-2.8023,-2.8043,-2.8035,-2.7956,-2.7945,-2.7934,-2.7927,-2.8044,-2.8044,-2.8118,-2.8119,-2.8119]}]]